Weather in Aomori

Japan     40°49′33″N   140°44′02″E
temp.,
°C
wind,
m/s
gust,
m/s
humid.,
%
clouds,
%
prec.,
mm/h
press.,
hPa
HPBL,
m
13 april, tue
tue1300:00+9se2168100 0.0 102225
03:00+9sse2267100 0.0 101927
06:00+10sse1167100 0.0 101730
09:00+12ese1362100 0.0 1013160
12:00+13wsw2664100 0.0 1010643
15:00+13s31265100 0.1 1007970
18:00+12ssw41880100 0.6 10051313
21:00+12sw81883100 1.9 10051304
14 april, wed
wed1400:00+8w379680 1.1 1008425
03:00+8w4791100 1.3 1008616
06:00+4w3684100 0.3 1012713
09:00+4w3674100 0.5 1012986
12:00+6wnw685899 0.1 10121441
15:00+5wnw795150 0.1 10131542
18:00+3wnw585818 0.0 10151242
21:00+1wsw256740 0.0 1018423
15 april, thu
thu1500:00+1ssw23735 0.0 1019139
03:000ssw357113 0.0 1019149
06:00+2ssw486421 0.0 1020387
09:00+7w694864 0.0 10212019
12:00+10w69382 0.0 10201908
15:00+10w68380 0.0 10211449
18:00+7sw35615 0.0 1023128
21:00+5s23685 0.0 102573
16 april, fri
fri1600:00+4se2255100 0.0 102436
03:00+5se1153100 0.0 102350
06:00+6sse115627 0.0 102343
09:00+12nnw134045 0.0 1022572
12:00+15sw1539100 0.0 10201307
15:00+14nnw1451100 0.0 1018796
18:00+10sw1273100 0.1 1020150
21:00+10se2277100 0.2 101931
17 april, sat
sat1700:00+10se227659 0.0 101848
03:00+9s128398 0.0 101723
06:00+10sse1181100 0.1 101545
09:00+11wnw1279100 0.2 1014181
12:00+14ssw51167100 0.1 10131244
15:00+13ssw51074100 0.5 10121038
18:00+11ssw4981100 0.5 1012751
21:00+9ssw35882 0.9 1013108